Regional Weather Roundup
Issued by NWS

Home | Current Version | Previous Version | Text Only | Print | Product List | Glossary Off
Versions: 1 2 3 4 5 6 7 8 9 10 11 12 13 14 15 16 17 18 19 20 21 22 23 24 25 26 27 28 29 30 31 32 33 34 35 36 37 38 39 40 41 42 43 44 45 46 47 48 49 50

913
ASUS43 KMPX 271410
RWRMN
WEATHER ROUNDUP FOR MINNESOTA
NATIONAL WEATHER SERVICE TWIN CITIES/CHANHASSEN MN
900 AM CDT TUE JUN 27 2017


NOTE: "FAIR" INDICATES FEW OR NO CLOUDS BELOW 12,000 FEET WITH NO
SIGNIFICANT WEATHER AND/OR OBSTRUCTIONS TO VISIBILITY. N/A MEANS
CURRENT SKY AND/OR WEATHER CONDITIONS ARE NOT AVAILABLE.

MNZ060>063-068>070-271500-
   Twin Cities Metro

CITY           SKY/WX    TMP DP  RH WIND       PRES   REMARKS
TWIN CITIES    MOSUNNY   66  44  45 W8        30.10S
ST PAUL        SUNNY     65  47  52 VRB5      30.10F
CRYSTAL        SUNNY     66  43  43 SW10      30.08F
BLAINE         SUNNY     66  50  55 SW7       30.09S
LAKEVILLE      SUNNY     64  48  55 SW3       30.10F
EDEN PRAIRIE   SUNNY     63  47  55 SW8       30.09F
SOUTH ST PAUL  SUNNY     65  45  48 SW7       30.10F
LAKE ELMO      FAIR      63  48  59 SW5       30.11S
$$
MNZ001>005-007-008-013>017-022>024-027-028-271500-
   Northwest Minnesota

CITY           SKY/WX    TMP DP  RH WIND       PRES   REMARKS
BEMIDJI        MOSUNNY   62  45  54 S9        30.00F
HALLOCK        MOSUNNY   61  46  59 S16       29.86F
ROSEAU         CLOUDY    61  48  63 SW10      29.92F
WARROAD        CLOUDY    59  48  67 SW9       29.93
THIEF RVR FALL SUNNY     62  44  51 S13       29.94F
CROOKSTON      SUNNY     61  46  59 S16       29.93F
FOSSTON        SUNNY     61  45  55 S12G17    29.96F
DETROIT LAKES  SUNNY     63  45  51 S12       30.00F
MOORHEAD       CLOUDY    63  43  48 S13       29.96F
PARK RAPIDS    SUNNY     63  42  46 SW13      30.02S
MAHNOMEN       FAIR      62  46  55 S15       29.97F
$$
MNZ006-009>011-018-025>026-271500-
   North Central Minnesota

CITY           SKY/WX    TMP DP  RH WIND       PRES   REMARKS
BAUDETTE       CLOUDY    62  45  53 SW9       29.95F
FLAG ISLAND    CLOUDY    63  45  51 SW12G17   29.91F
INTL FALLS     PTSUNNY   61  46  57 W6        29.98F
WASKISH        CLOUDY    61  48  63 SW9       29.98F
BIG FORK       SUNNY     64  50  59 SW6       30.01S
LONGVILLE      MOSUNNY   61  48  63 SW5       30.03S
GRAND RAPIDS   SUNNY     63  44  50 W8        30.04F
CRANE LAKE     MOSUNNY   59  46  63 CALM      30.01S
ORR            CLOUDY    57  46  67 S3        29.98F
COOK           PTSUNNY   61  48  63 SW3       30.02S
WALKER         FAIR      60  45  57 SW8       30.01F
$$
MNZ012-019>021-037-271500-
   Northeast Minnesota

CITY           SKY/WX    TMP DP  RH WIND       PRES   REMARKS
DULUTH         MOSUNNY   64  47  53 W8        30.04S
ELY            SUNNY     61  46  59 W6        30.01F
HIBBING        PTSUNNY   61  46  57 W6        30.03S
EVELETH        PTSUNNY   58  45  63 SW6       30.04S
DULUTH HARBOR  MOSUNNY   63  52  67 SW6       30.04S
TWO HARBORS    SUNNY     64  52  63 NW5       30.02S
SILVER BAY     SUNNY     66  48  52 CALM      30.00F
GRAND MARAIS     N/A     48  44  86 W8        30.00R
G MARAIS ARPRT SUNNY     63  46  55 SW5       30.02S
$$
MNZ029>031-032-039>041-046>048-054>057-064-271500-
   West Central Minnesota

CITY           SKY/WX    TMP DP  RH WIND       PRES   REMARKS
FERGUS FALLS   MOSUNNY   63  45  51 S14       29.99F
WHEATON        SUNNY     64  43  45 S12G17    30.02F
MORRIS         SUNNY     64  45  48 S14       30.02F
ALEXANDRIA     SUNNY     64  44  48 S15       30.05F
ELBOW LAKE     FAIR      63  46  52 S13       30.02F
WADENA         SUNNY     63  46  55 S8        30.02F
GLENWOOD       SUNNY     63  45  51 S12G17    30.05F
APPLETON       SUNNY     64  45  48 S10       30.02F
BENSON         SUNNY     64  45  48 SW12      30.05F
ORTONVILLE     MOSUNNY   64  45  48 S8        30.02S
MADISON        CLOUDY    66  46  48 S13       30.02F
WILLMAR        FAIR      64  45  48 S6        30.07F
$$
MNZ033>034-036-042>043-049>051-058-059-271500-
   Central Minnesota

CITY           SKY/WX    TMP DP  RH WIND       PRES   REMARKS
ST CLOUD       SUNNY     65  47  52 S9        30.07F
SAUK CENTRE    FAIR      64  44  47 S9        30.06S
PAYNESVILLE    SUNNY     64  46  50 S6        30.07F
AITKIN         SUNNY     63  46  55 SW6       30.03F
PINE RIVER     MOSUNNY   63  46  55 S8        30.06F
BRAINERD       MOSUNNY   61  47  59 S6        30.05F
STAPLES        SUNNY     63  45  51 S8        30.03F
LONG PRAIRIE   FAIR      61  45  55 S10       30.05F
LITTLE FALLS   SUNNY     63  43  48 S7        30.05F
LITCHFIELD     SUNNY     66  48  52 CALM      30.08F
BUFFALO        SUNNY     64  45  50 S7        30.09F
MAPLE LAKE     SUNNY     65  50  58 SW5       30.09F
HUTCHINSON     MOSUNNY   66  47  51 S5        30.09F
$$
MNZ037-044-045-052-053-271500-
   East Central Minnesota

CITY           SKY/WX    TMP DP  RH WIND       PRES   REMARKS
PRINCETON      SUNNY     66  48  52 SW6       30.07F
MORA           SUNNY     63  46  55 W7        30.08F
CAMBRIDGE      SUNNY     66  48  52 CALM      30.06F
RUSH CITY      SUNNY     63  48  59 CALM      30.08F
MOOSE LAKE     PTSUNNY   61  50  67 SW6       30.04F
HINCKLEY       FAIR      63  46  55 W7        30.08S
CLOQUET        MOSUNNY   63  43  48 W8        30.05S
MCGREGOR       SUNNY     63  46  55 SW5       30.05F
$$
MNZ071>073-080-081-089-090-097-098-271500-
   Southwest Minnesota

CITY           SKY/WX    TMP DP  RH WIND       PRES   REMARKS
MONTEVIDEO     SUNNY     66  46  48 SW9       30.04F
GRANITE FALLS  SUNNY     65  47  51 S13       30.07F
CANBY          MOSUNNY   67  43  41 S8G17     30.04F
MARSHALL       SUNNY     66  44  45 S16G22    30.05F
REDWOOD FALLS  SUNNY     66  43  43 S12       30.07F
OLIVIA         SUNNY     64  45  48 S10       30.06F
PIPESTONE      SUNNY     63  43  48 S15       30.06F
WINDOM         SUNNY     64  43  45 S9        30.09F
WORTHINGTON    MOSUNNY   64  43  46 S16       30.09F
JACKSON        SUNNY     63  43  48 S8        30.11F
TRACY          SUNNY     65  45  48 S12G18    30.07F
SLAYTON        MOSUNNY   62  43  49 S14       30.09F
$$
MNZ065>067-074>077-082>085-091>093-271500-
   South Central Minnesota

CITY           SKY/WX    TMP DP  RH WIND       PRES   REMARKS
MANKATO        SUNNY     64  46  52 S7        30.11F
NEW ULM        SUNNY     64  45  48 S8        30.09F
ST JAMES       SUNNY     64  45  48 S12       30.11S
FAIRMONT       SUNNY     64  45  49 S9        30.11F
GLENCOE        SUNNY     66  50  57 S7        30.08F
FARIBAULT      SUNNY     64  48  55 NW5       30.12S
OWATONNA       SUNNY     64  45  48 SW7       30.13S
WASECA         SUNNY     63  45  51 S6        30.13F
ALBERT LEA     SUNNY     64  45  48 SW6       30.13S
$$
MNZ078>079-086>088-094>096-271500-
   Southeast Minnesota

CITY           SKY/WX    TMP DP  RH WIND       PRES   REMARKS
ROCHESTER      SUNNY     65  45  48 W9        30.14S
RED WING       SUNNY     63  46  55 CALM      30.10S
STANTON        SUNNY     66  48  52 W5        30.10S
DODGE CENTER   SUNNY     63  45  51 W9        30.13S
WINONA         SUNNY     61  50  67 CALM      30.12S
AUSTIN         SUNNY     63  48  59 SW3       30.13S
PRESTON        SUNNY     63  47  55 W6        30.14S
$$
ABBREVIATIONS USED IN REMARKS
   TC - TEMPERATURES IN CELSIUS
  WCI - WIND CHILL INDEX
   HX - HEAT INDEX
  VSB - VISIBILITY
$$




USA.gov is the U.S. government's official web portal to all federal, state and local government web resources and services.